Location: Coed Ely
(51.5661°N, 3.4150°W)
Time: 21:40:15
(UTC+00:00)

Cosmos 1869 - Pass Details

Date: 28 January 2021
Orbit: 517 x 564 km, 82.5° (Epoch: 01 March)

Event Time Altitude Azimuth Distance (km) Brightness Sun altitude
Rises 18:23:25 0° 357° (N) 2,668 6.7 -13.5°
Reaches altitude 10° 18:25:47 10° 10° (N) 1,780 5.7 -13.9°
Maximum altitude 18:29:11 28° 70° (ENE) 1,022 4.1 -14.4°
Enters shadow 18:30:16 24° 99° (E) 1,122 4.3 -14.5°
